Location: Sceptre
(50.8619°N, 109.2670°W)
Time: 03:17:11
(UTC+00:00)

ISS - Visible Passes

Search period start: 27 January 2022 00:00
Search period end: 06 February 2022 00:00
Orbit: 413 x 422 km, 51.6° (Epoch: 26 January)

Date Brightness Start Highest point End Pass type
(mag) Time Alt. Az. Time Alt. Az. Time Alt. Az.
27 Jan -3.8 01:00:27 10° W 01:03:48 86° N 01:06:18 17° ENE visible
27 Jan -2.0 02:37:18 10° W 02:39:14 32° WNW 02:39:14 32° WNW visible
28 Jan -3.9 01:49:13 10° W 01:52:34 77° N 01:53:09 56° ENE visible
28 Jan -0.1 03:26:02 10° W 03:26:05 10° W 03:26:05 10° W visible
29 Jan -3.8 01:01:06 10° W 01:04:28 75° N 01:07:05 15° E visible
29 Jan -2.1 02:37:56 10° WNW 02:40:01 34° W 02:40:01 34° W visible
30 Jan -3.8 01:49:50 10° WNW 01:53:10 83° SSW 01:53:59 49° ESE visible
30 Jan -0.2 03:26:49 10° W 03:26:55 11° W 03:26:55 11° W visible
31 Jan -3.8 01:01:43 10° W 01:05:04 84° N 01:08:00 13° E visible
31 Jan -2.1 02:38:34 10° W 02:40:56 32° WSW 02:40:56 32° WSW visible
01 Feb -3.1 01:50:24 10° W 01:53:39 51° SSW 01:55:02 29° SE visible
02 Feb -3.5 01:02:14 10° WNW 01:05:34 68° SSW 01:08:52 10° ESE visible
02 Feb -1.4 02:39:29 10° W 02:41:55 19° SW 02:42:11 19° SSW visible
03 Feb -1.8 01:51:03 10° W 01:53:56 27° SSW 01:56:31 12° SSE visible
04 Feb -2.4 01:02:46 10° W 01:05:54 38° SSW 01:09:01 10° SE visible
05 Feb -0.8 01:52:18 10° WSW 01:54:00 13° SW 01:55:41 10° S visible
